• In Belarus
  • List of Countries
  • For 7 days
  • Water Temperature
  • Satellite Maps
  • Weather Map
  • Weather Widgets
  • user-avatar
    Login

    Hourly Weather Baryshevka

    Today, 20 October, Friday

    Time Temperature Precipitation Wind Pressure Humidity
    00:00 +11°C° 0 mm 3 mps 753 mmHg 84%
    01:00 +11°C° 0 mm 3 mps 753 mmHg 85%
    02:00 +10°C° 0 mm 3 mps 753 mmHg 85%
    03:00 +10°C° 0 mm 3 mps 753 mmHg 85%
    04:00 +9°C° 0 mm 3 mps 754 mmHg 85%
    05:00 +9°C° 0 mm 3 mps 754 mmHg 85%
    06:00 +9°C° 0 mm 3 mps 754 mmHg 83%
    07:00 +9°C° 0 mm 3 mps 754 mmHg 80%
    08:00 +10°C° 0 mm 3 mps 754 mmHg 78%
    09:00 +11°C° 0 mm 3 mps 755 mmHg 73%
    10:00 +12°C° 0 mm 3 mps 755 mmHg 68%
    11:00 +13°C° 0 mm 4 mps 755 mmHg 63%
    12:00 +14°C° 0 mm 4 mps 755 mmHg 61%
    13:00 +14°C° 0 mm 3 mps 755 mmHg 59%
    14:00 +16°C° 0 mm 3 mps 755 mmHg 57%
    15:00 +14°C° 0 mm 3 mps 755 mmHg 60%
    16:00 +13°C° 0 mm 3 mps 755 mmHg 63%
    17:00 +12°C° 0 mm 3 mps 755 mmHg 66%
    18:00 +11°C° 0 mm 3 mps 755 mmHg 67%
    19:00 +10°C° 0 mm 3 mps 755 mmHg 67%
    20:00 +9°C° 0 mm 3 mps 755 mmHg 68%
    21:00 +9°C° 0 mm 3 mps 756 mmHg 69%
    22:00 +8°C° 0 mm 2 mps 756 mmHg 69%
    23:00 +8°C° 0 mm 2 mps 756 mmHg 70%

    Tomorrow, 21 October, Saturday

    Time Temperature Precipitation Wind Pressure Humidity
    00:00 +8°C° 0 mm 2 mps 756 mmHg 70%
    01:00 +7°C° 0 mm 2 mps 756 mmHg 71%
    02:00 +7°C° 0 mm 2 mps 756 mmHg 71%
    03:00 +6°C° 0 mm 2 mps 755 mmHg 72%
    04:00 +6°C° 0 mm 2 mps 755 mmHg 72%
    05:00 +6°C° 0 mm 2 mps 755 mmHg 73%
    06:00 +6°C° 0 mm 2 mps 755 mmHg 71%
    07:00 +6°C° 0 mm 2 mps 755 mmHg 70%
    08:00 +7°C° 0 mm 2 mps 755 mmHg 69%
    09:00 +8°C° 0 mm 2 mps 755 mmHg 64%
    10:00 +9°C° 0 mm 2 mps 755 mmHg 59%
    11:00 +12°C° 0 mm 2 mps 755 mmHg 54%
    12:00 +12°C° 0 mm 2 mps 754 mmHg 53%
    13:00 +13°C° 0 mm 2 mps 754 mmHg 51%
    14:00 +13°C° 0 mm 2 mps 754 mmHg 50%
    15:00 +13°C° 0 mm 2 mps 753 mmHg 52%
    16:00 +12°C° 0 mm 2 mps 753 mmHg 54%
    17:00 +10°C° 0 mm 2 mps 753 mmHg 56%
    18:00 +10°C° 0 mm 3 mps 753 mmHg 56%
    19:00 +10°C° 0 mm 3 mps 753 mmHg 56%
    20:00 +8°C° 0 mm 4 mps 753 mmHg 56%
    21:00 +8°C° 0.1 mm 4 mps 753 mmHg 58%
    22:00 +7°C° 0.1 mm 4 mps 752 mmHg 61%
    23:00 +7°C° 0.1 mm 4 mps 752 mmHg 64%

    Day after tomorrow, 22 October, Sunday

    Time Temperature Precipitation Wind Pressure Humidity
    00:00 +6°C° 0.3 mm 4 mps 753 mmHg 66%
    01:00 +6°C° 0.3 mm 4 mps 753 mmHg 69%
    02:00 +5°C° 0.3 mm 4 mps 753 mmHg 72%
    03:00 +5°C° 0.1 mm 4 mps 753 mmHg 74%
    04:00 +4°C° 0.1 mm 3 mps 753 mmHg 77%
    05:00 +4°C° 0.1 mm 3 mps 753 mmHg 79%
    06:00 +4°C° 0 mm 3 mps 754 mmHg 78%
    07:00 +4°C° 0 mm 4 mps 754 mmHg 77%
    08:00 +4°C° 0 mm 4 mps 754 mmHg 75%
    09:00 +5°C° 0 mm 4 mps 755 mmHg 69%
    10:00 +6°C° 0 mm 4 mps 755 mmHg 63%
    11:00 +8°C° 0 mm 4 mps 755 mmHg 56%
    12:00 +9°C° 0 mm 3 mps 755 mmHg 53%
    13:00 +9°C° 0 mm 3 mps 755 mmHg 50%
    14:00 +10°C° 0 mm 3 mps 755 mmHg 47%
    15:00 +9°C° 0 mm 3 mps 755 mmHg 50%
    16:00 +8°C° 0 mm 2 mps 755 mmHg 53%
    17:00 +7°C° 0 mm 2 mps 755 mmHg 56%
    18:00 +6°C° 0 mm 2 mps 755 mmHg 58%
    19:00 +5°C° 0 mm 2 mps 755 mmHg 60%
    20:00 +5°C° 0 mm 2 mps 756 mmHg 61%
    21:00 +4°C° 0 mm 2 mps 756 mmHg 62%
    22:00 +4°C° 0 mm 2 mps 756 mmHg 64%
    23:00 +4°C° 0 mm 2 mps 756 mmHg 65%

    23 October, Monday

    Time Temperature Precipitation Wind Pressure Humidity
    00:00 +3°C° 0 mm 2 mps 756 mmHg 66%
    01:00 +3°C° 0 mm 2 mps 756 mmHg 68%
    02:00 +3°C° 0 mm 2 mps 756 mmHg 69%
    03:00 +1°C° 0 mm 3 mps 755 mmHg 71%
    04:00 +1°C° 0 mm 3 mps 755 mmHg 73%
    05:00 +1°C° 0 mm 3 mps 755 mmHg 75%
    06:00 +1°C° 0 mm 3 mps 755 mmHg 73%
    07:00 +2°C° 0 mm 3 mps 755 mmHg 72%
    08:00 +1°C° 0 mm 4 mps 755 mmHg 70%
    09:00 +4°C° 0 mm 4 mps 754 mmHg 65%
    10:00 +6°C° 0 mm 4 mps 754 mmHg 59%
    11:00 +7°C° 0 mm 4 mps 754 mmHg 54%
    12:00 +8°C° 0 mm 4 mps 754 mmHg 53%
    13:00 +8°C° 0 mm 4 mps 754 mmHg 52%
    14:00 +10°C° 0 mm 4 mps 753 mmHg 50%
    15:00 +8°C° 0 mm 4 mps 753 mmHg 55%
    16:00 +7°C° 0 mm 4 mps 753 mmHg 59%
    17:00 +7°C° 0 mm 3 mps 753 mmHg 63%
    18:00 +6°C° 0 mm 4 mps 753 mmHg 62%
    19:00 +5°C° 0 mm 4 mps 753 mmHg 61%
    20:00 +5°C° 0 mm 4 mps 754 mmHg 60%
    21:00 +5°C° 0 mm 5 mps 754 mmHg 59%
    22:00 +3°C° 0 mm 5 mps 754 mmHg 58%
    23:00 +3°C° 0 mm 5 mps 754 mmHg 57%

    24 October, Tuesday

    Time Temperature Precipitation Wind Pressure Humidity
    00:00 +3°C° 0 mm 5 mps 754 mmHg 57%
    01:00 +2°C° 0 mm 5 mps 754 mmHg 58%
    02:00 +2°C° 0 mm 5 mps 755 mmHg 59%
    03:00 +2°C° 0 mm 5 mps 755 mmHg 58%
    04:00 +2°C° 0 mm 5 mps 755 mmHg 58%
    05:00 +2°C° 0 mm 5 mps 755 mmHg 57%
    06:00 +2°C° 0 mm 5 mps 756 mmHg 56%
    07:00 +2°C° 0 mm 6 mps 756 mmHg 54%
    08:00 +2°C° 0 mm 6 mps 757 mmHg 52%
    09:00 +3°C° 0 mm 6 mps 757 mmHg 49%
    10:00 +4°C° 0 mm 6 mps 757 mmHg 46%
    11:00 +5°C° 0 mm 6 mps 758 mmHg 43%
    12:00 +5°C° 0 mm 6 mps 758 mmHg 42%
    13:00 +5°C° 0 mm 6 mps 758 mmHg 41%
    14:00 +7°C° 0 mm 6 mps 758 mmHg 39%
    15:00 +5°C° 0 mm 6 mps 759 mmHg 41%
    16:00 +5°C° 0 mm 5 mps 759 mmHg 43%
    17:00 +5°C° 0 mm 5 mps 759 mmHg 45%
    18:00 +3°C° 0 mm 5 mps 760 mmHg 45%
    19:00 +3°C° 0 mm 5 mps 760 mmHg 46%
    20:00 +3°C° 0 mm 5 mps 761 mmHg 47%
    21:00 +2°C° 0 mm 5 mps 761 mmHg 49%
    22:00 +2°C° 0 mm 5 mps 762 mmHg 50%
    23:00 +2°C° 0 mm 5 mps 762 mmHg 52%

    25 October, Wednesday

    Time Temperature Precipitation Wind Pressure Humidity
    00:00 +2°C° 0 mm 5 mps 762 mmHg 53%
    01:00 +2°C° 0 mm 5 mps 762 mmHg 54%
    02:00 +1°C° 0 mm 5 mps 763 mmHg 55%
    03:00 +1°C° 0 mm 4 mps 763 mmHg 55%
    04:00 +1°C° 0 mm 4 mps 763 mmHg 56%
    05:00 +1°C° 0 mm 4 mps 763 mmHg 57%
    06:00 +1°C° 0 mm 4 mps 764 mmHg 57%
    07:00 +1°C° 0 mm 4 mps 764 mmHg 56%
    08:00 +1°C° 0 mm 5 mps 764 mmHg 56%
    09:00 +1°C° 0.1 mm 5 mps 764 mmHg 56%
    10:00 +2°C° 0.1 mm 5 mps 765 mmHg 55%
    11:00 +2°C° 0.1 mm 5 mps 765 mmHg 54%
    12:00 +2°C° 0 mm 5 mps 765 mmHg 53%
    13:00 +4°C° 0 mm 4 mps 765 mmHg 52%
    14:00 +4°C° 0 mm 4 mps 764 mmHg 51%
    15:00 +4°C° 0 mm 4 mps 765 mmHg 53%
    16:00 +3°C° 0 mm 4 mps 765 mmHg 55%
    17:00 +3°C° 0 mm 4 mps 765 mmHg 57%
    18:00 +2°C° 0 mm 3 mps 765 mmHg 58%
    19:00 +2°C° 0 mm 3 mps 765 mmHg 60%
    20:00 +1°C° 0 mm 3 mps 766 mmHg 62%
    21:00 +1°C° 0 mm 3 mps 766 mmHg 64%
    22:00 +1°C° 0 mm 3 mps 766 mmHg 65%
    23:00 0°C° 0 mm 3 mps 766 mmHg 67%
    Show more